Weather History for KVPS - May, 2013

Change the Weather History Date:

Thursday, May 9, 2013

  Actual Average Record
Temperature  
Mean Temperature 68 °F -  
Max Temperature 78 °F 83 °F 94 °F (1949)
Min Temperature 58 °F 60 °F 42 °F (1960)
Cooling Degree Days 2    
Growing Degree Days 18 (Base 50)    
Moisture  
Dew Point 62 °F    
Average Humidity 84    
Maximum Humidity 100    
Minimum Humidity 56    
Precipitation  
Precipitation 0.00 in - - ()
Sea Level Pressure  
Sea Level Pressure 30.13 in    
Wind  
Wind Speed 3 mph (SSW)    
Max Wind Speed 13 mph    
Max Gust Speed -    
Visibility 7 miles    
Events Fog    
Averages and records for this station are not official NWS values.
T = Trace of Precipitation, MM = Missing Value Source: NWS Daily Summary

Daily Weather History Graph

Daily Weather History Graph

Search for Another Location

Airport or City:

Trip Planner

Search our weather history database for the weather conditions in past years. The results will help you decide how hot, cold, wet, or windy it might be!

Date:

Astronomy

May. 09, 2013 Rise Set
Actual Time 5:55 AM CDT 7:29 PM CDT
Civil Twilight 5:29 AM CDT 7:55 PM CDT
Nautical Twilight 4:58 AM CDT 8:26 PM CDT
Astronomical Twilight 4:26 AM CDT 8:59 PM CDT
Moon 5:37 AM CDT (5/9) 7:24 PM CDT (5/9)
Length of Visible Light 14h 26m
Length of Day
13h 34m
Waning Crescent, 0% of the Moon is Illuminated
May 9
Waning Crescent
May 9
New
May 17
First Quarter
May 24
Full
May 31
Last Quarter

Hourly Weather History & Observations

Time (CDT) Temp. Dew Point Humidity Pressure Visibility Wind Dir Wind Speed Gust Speed Precip Events Conditions
12:55 AM 65.3 °F 63.5 °F 94% 30.12 in 7.0 mi West 1.2 mph - N/A   Clear
1:55 AM 64.0 °F 62.6 °F 95% 30.10 in 9.0 mi Calm Calm - N/A   Clear
2:55 AM 63.1 °F 61.9 °F 96% 30.09 in 7.0 mi Calm Calm - N/A   Clear
3:55 AM 61.2 °F 60.1 °F 96% 30.10 in 5.0 mi Calm Calm - N/A   Clear
4:19 AM 60.8 °F 60.8 °F 100% 30.08 in 1.0 mi NNE 1.2 mph - N/A   Partly Cloudy
4:39 AM 59.0 °F 59.0 °F 100% 30.09 in 0.5 mi NNE 1.2 mph - N/A Fog Fog
4:55 AM 59.4 °F 58.8 °F 98% 30.09 in 0.5 mi North 2.3 mph - N/A Fog Fog
5:30 AM 59.0 °F 59.0 °F 100% 30.10 in 0.2 mi North 1.2 mph - N/A Fog Fog
5:55 AM 58.5 °F 57.9 °F 98% 30.10 in 0.2 mi Calm Calm - N/A Fog Fog
6:23 AM 59.0 °F 57.2 °F 94% 30.11 in 0.5 mi North 1.2 mph - N/A Fog Fog
6:41 AM 59.0 °F 59.0 °F 100% 30.11 in 1.0 mi NNW 2.3 mph - N/A   Mostly Cloudy
6:49 AM 60.8 °F 60.8 °F 100% 30.12 in 2.5 mi Calm Calm - N/A   Mostly Cloudy
6:55 AM 60.8 °F 60.4 °F 99% 30.14 in 3.0 mi Calm Calm - N/A   Mostly Cloudy
7:56 AM 67.6 °F 64.9 °F 91% 30.16 in 10.0 mi Calm Calm - N/A   Mostly Cloudy
8:55 AM 72.9 °F 66.0 °F 79% 30.17 in 10.0 mi SSE 3.5 mph - N/A   Mostly Cloudy
9:55 AM 74.3 °F 66.2 °F 76% 30.17 in 10.0 mi South 8.1 mph - N/A   Mostly Cloudy
10:59 AM 76.6 °F 64.4 °F 66% 30.19 in 10.0 mi SSW 9.2 mph - N/A   Mostly Cloudy
11:55 AM 76.8 °F 64.6 °F 66% 30.18 in 10.0 mi South 12.7 mph - N/A   Mostly Cloudy
12:55 PM 77.4 °F 64.4 °F 64% 30.18 in 10.0 mi South 11.5 mph - N/A   Scattered Clouds
1:55 PM 77.7 °F 61.7 °F 58% 30.17 in 10.0 mi South 11.5 mph - N/A   Scattered Clouds
2:55 PM 77.9 °F 61.0 °F 56% 30.15 in 10.0 mi SSW 12.7 mph - N/A   Scattered Clouds
3:55 PM 76.6 °F 64.6 °F 66% 30.13 in 10.0 mi SSW 9.2 mph - N/A   Mostly Cloudy
4:55 PM 76.3 °F 64.8 °F 67% 30.13 in 10.0 mi South 11.5 mph - N/A   Scattered Clouds
5:55 PM 75.2 °F 64.0 °F 68% 30.12 in 10.0 mi South 11.5 mph - N/A   Scattered Clouds
6:55 PM 73.6 °F 63.0 °F 69% 30.11 in 10.0 mi SSW 8.1 mph - N/A   Scattered Clouds
7:55 PM 71.6 °F 64.2 °F 77% 30.14 in 10.0 mi SW 5.8 mph - N/A   Scattered Clouds
8:55 PM 71.6 °F 64.2 °F 77% 30.14 in 10.0 mi SW 4.6 mph - N/A   Clear
9:55 PM 70.5 °F 64.6 °F 81% 30.14 in 10.0 mi SW 3.5 mph - N/A   Clear
10:55 PM 69.8 °F 65.3 °F 86% 30.14 in 10.0 mi SW 4.6 mph - N/A   Clear
11:55 PM 68.7 °F 65.1 °F 88% 30.13 in 10.0 mi SSW 3.5 mph - N/A   Partly Cloudy